When you browse on this site, cookies collect data to enhance your experience and personalize the content and advertising you see.
Visit our Privacy Policy to learn more. By continuing to use the site, you agree to this use of cookies and data.
  • In Austria
  • List of Countries
  • For 7 days
  • Water Temperature
  • Weather Map
  • News
  • Weather Widgets
  • user-avatar
    Login

    Hourly Weather Grichinovichi

    Today, 29 May, Friday

    Time Temperature Precipitation Wind Pressure Humidity
    00:00 +10°C° 0.1 mm 2 mps 750 mmHg 93%
    01:00 +11°C° 0.1 mm 1 mps 750 mmHg 94%
    02:00 +11°C° 0 mm 1 mps 750 mmHg 95%
    03:00 +11°C° 0.5 mm 1 mps 749 mmHg 95%
    04:00 +11°C° 0.5 mm 1 mps 749 mmHg 96%
    05:00 +10°C° 0.5 mm 2 mps 749 mmHg 96%
    06:00 +11°C° 0.4 mm 3 mps 749 mmHg 94%
    07:00 +11°C° 0.4 mm 4 mps 749 mmHg 93%
    08:00 +12°C° 0 mm 5 mps 749 mmHg 92%
    09:00 +12°C° 0.3 mm 5 mps 749 mmHg 92%
    10:00 +11°C° 0.3 mm 6 mps 749 mmHg 92%
    11:00 +11°C° 0.3 mm 6 mps 748 mmHg 92%
    12:00 +11°C° 0.2 mm 6 mps 748 mmHg 91%
    13:00 +11°C° 0.2 mm 6 mps 748 mmHg 90%
    14:00 +12°C° 0 mm 5 mps 748 mmHg 89%
    15:00 +11°C° 0 mm 6 mps 748 mmHg 87%
    16:00 +11°C° 0 mm 6 mps 748 mmHg 85%
    17:00 +11°C° 0 mm 6 mps 747 mmHg 83%
    18:00 +11°C° 0 mm 6 mps 747 mmHg 83%
    19:00 +11°C° 0 mm 6 mps 747 mmHg 83%
    20:00 +12°C° 0 mm 5 mps 747 mmHg 83%
    21:00 +12°C° 0 mm 5 mps 747 mmHg 82%
    22:00 +12°C° 0 mm 5 mps 747 mmHg 82%
    23:00 +12°C° 0 mm 5 mps 746 mmHg 82%

    Tomorrow, 30 May, Saturday

    Time Temperature Precipitation Wind Pressure Humidity
    00:00 +12°C° 0 mm 5 mps 746 mmHg 83%
    01:00 +12°C° 0 mm 5 mps 746 mmHg 84%
    02:00 +12°C° 0 mm 5 mps 746 mmHg 85%
    03:00 +10°C° 0.2 mm 5 mps 745 mmHg 88%
    04:00 +10°C° 0.2 mm 5 mps 745 mmHg 91%
    05:00 +10°C° 0.2 mm 5 mps 744 mmHg 94%
    06:00 +10°C° 1.7 mm 5 mps 744 mmHg 94%
    07:00 +10°C° 1.7 mm 6 mps 744 mmHg 95%
    08:00 +11°C° 1.7 mm 6 mps 743 mmHg 96%
    09:00 +11°C° 2.2 mm 6 mps 743 mmHg 96%
    10:00 +11°C° 2.2 mm 6 mps 743 mmHg 96%
    11:00 +11°C° 2.2 mm 6 mps 742 mmHg 96%
    12:00 +11°C° 1.4 mm 6 mps 742 mmHg 96%
    13:00 +11°C° 1.4 mm 6 mps 741 mmHg 95%
    14:00 +13°C° 1.4 mm 6 mps 741 mmHg 95%
    15:00 +13°C° 2.5 mm 6 mps 740 mmHg 95%
    16:00 +13°C° 2.5 mm 6 mps 740 mmHg 95%
    17:00 +14°C° 2.5 mm 6 mps 739 mmHg 95%
    18:00 +14°C° 3.1 mm 6 mps 738 mmHg 95%
    19:00 +14°C° 3.1 mm 7 mps 738 mmHg 95%
    20:00 +12°C° 3.1 mm 8 mps 737 mmHg 96%
    21:00 +13°C° 1.3 mm 8 mps 737 mmHg 95%
    22:00 +13°C° 1.3 mm 9 mps 737 mmHg 95%
    23:00 +13°C° 1.3 mm 9 mps 736 mmHg 94%

    Day after tomorrow, 31 May, Sunday

    Time Temperature Precipitation Wind Pressure Humidity
    00:00 +13°C° 0.1 mm 8 mps 737 mmHg 94%
    01:00 +13°C° 0.1 mm 8 mps 737 mmHg 93%
    02:00 +12°C° 0.1 mm 7 mps 737 mmHg 93%
    03:00 +12°C° 0 mm 7 mps 738 mmHg 93%
    04:00 +13°C° 0 mm 6 mps 738 mmHg 93%
    05:00 +12°C° 0 mm 5 mps 739 mmHg 93%
    06:00 +13°C° 0 mm 5 mps 740 mmHg 91%
    07:00 +14°C° 0 mm 5 mps 740 mmHg 89%
    08:00 +14°C° 0 mm 4 mps 741 mmHg 86%
    09:00 +15°C° 0.3 mm 4 mps 741 mmHg 86%
    10:00 +15°C° 0.3 mm 5 mps 742 mmHg 85%
    11:00 +15°C° 0.3 mm 5 mps 743 mmHg 85%
    12:00 +14°C° 0.7 mm 5 mps 743 mmHg 87%
    13:00 +14°C° 0.7 mm 5 mps 743 mmHg 90%
    14:00 +13°C° 0.7 mm 6 mps 744 mmHg 93%
    15:00 +11°C° 0.3 mm 6 mps 744 mmHg 92%
    16:00 +11°C° 0.3 mm 6 mps 745 mmHg 92%
    17:00 +11°C° 0.3 mm 7 mps 745 mmHg 92%
    18:00 +10°C° 0.2 mm 7 mps 745 mmHg 91%
    19:00 +10°C° 0.2 mm 7 mps 746 mmHg 91%
    20:00 +10°C° 0.2 mm 7 mps 746 mmHg 90%
    21:00 +9°C° 0 mm 6 mps 747 mmHg 90%
    22:00 +9°C° 0 mm 5 mps 747 mmHg 91%
    23:00 +10°C° 0 mm 4 mps 747 mmHg 91%

    1 June, Monday

    Time Temperature Precipitation Wind Pressure Humidity
    00:00 +8°C° 0 mm 5 mps 748 mmHg 91%
    01:00 +8°C° 0 mm 5 mps 748 mmHg 91%
    02:00 +7°C° 0 mm 5 mps 748 mmHg 90%
    03:00 +7°C° 0 mm 5 mps 748 mmHg 89%
    04:00 +6°C° 0 mm 5 mps 749 mmHg 88%
    05:00 +6°C° 0 mm 5 mps 749 mmHg 86%
    06:00 +7°C° 0 mm 5 mps 749 mmHg 79%
    07:00 +8°C° 0 mm 6 mps 749 mmHg 72%
    08:00 +9°C° 0 mm 6 mps 750 mmHg 66%
    09:00 +10°C° 0 mm 6 mps 750 mmHg 65%
    10:00 +10°C° 0 mm 6 mps 750 mmHg 63%
    11:00 +11°C° 0 mm 6 mps 750 mmHg 62%
    12:00 +11°C° 0.1 mm 6 mps 750 mmHg 62%
    13:00 +11°C° 0.1 mm 6 mps 750 mmHg 61%
    14:00 +11°C° 0.1 mm 6 mps 750 mmHg 61%
    15:00 +11°C° 0.1 mm 6 mps 750 mmHg 61%
    16:00 +11°C° 0.1 mm 6 mps 750 mmHg 62%
    17:00 +12°C° 0.1 mm 5 mps 750 mmHg 63%
    18:00 +10°C° 0 mm 5 mps 750 mmHg 68%
    19:00 +8°C° 0 mm 4 mps 750 mmHg 73%
    20:00 +8°C° 0 mm 3 mps 750 mmHg 78%
    21:00 +7°C° 0 mm 3 mps 750 mmHg 81%
    22:00 +5°C° 0 mm 3 mps 750 mmHg 84%
    23:00 +4°C° 0 mm 3 mps 750 mmHg 87%

    2 June, Tuesday

    Time Temperature Precipitation Wind Pressure Humidity
    00:00 +4°C° 0 mm 3 mps 750 mmHg 87%
    01:00 +4°C° 0 mm 3 mps 750 mmHg 87%
    02:00 +4°C° 0 mm 3 mps 749 mmHg 88%
    03:00 +5°C° 0 mm 3 mps 749 mmHg 89%
    04:00 +5°C° 0 mm 3 mps 749 mmHg 90%
    05:00 +5°C° 0 mm 3 mps 749 mmHg 91%
    06:00 +6°C° 0.2 mm 4 mps 749 mmHg 89%
    07:00 +7°C° 0.2 mm 4 mps 748 mmHg 87%
    08:00 +8°C° 0.2 mm 4 mps 748 mmHg 85%
    09:00 +9°C° 0.3 mm 5 mps 748 mmHg 82%
    10:00 +10°C° 0.3 mm 6 mps 748 mmHg 80%
    11:00 +11°C° 0.3 mm 6 mps 748 mmHg 77%
    12:00 +13°C° 0.4 mm 6 mps 747 mmHg 74%
    13:00 +13°C° 0.4 mm 6 mps 747 mmHg 71%
    14:00 +14°C° 0.4 mm 5 mps 746 mmHg 69%
    15:00 +14°C° 0.5 mm 5 mps 746 mmHg 73%
    16:00 +13°C° 0.5 mm 5 mps 746 mmHg 78%
    17:00 +13°C° 0.5 mm 5 mps 745 mmHg 83%
    18:00 +12°C° 0.7 mm 5 mps 745 mmHg 86%
    19:00 +11°C° 0.7 mm 4 mps 745 mmHg 90%
    20:00 +10°C° 0.7 mm 4 mps 744 mmHg 94%
    21:00 +9°C° 0.9 mm 5 mps 744 mmHg 94%
    22:00 +9°C° 0.9 mm 5 mps 744 mmHg 95%
    23:00 +8°C° 0.9 mm 6 mps 743 mmHg 95%

    3 June, Wednesday

    Time Temperature Precipitation Wind Pressure Humidity
    00:00 +8°C° 0.7 mm 6 mps 743 mmHg 95%
    01:00 +8°C° 0.7 mm 6 mps 742 mmHg 95%
    02:00 +8°C° 0.7 mm 6 mps 741 mmHg 95%
    03:00 +8°C° 0.6 mm 6 mps 741 mmHg 95%
    04:00 +8°C° 0.6 mm 6 mps 741 mmHg 96%
    05:00 +8°C° 0.6 mm 6 mps 740 mmHg 96%
    06:00 +9°C° 0.6 mm 6 mps 740 mmHg 96%
    07:00 +9°C° 0.6 mm 5 mps 740 mmHg 96%
    08:00 +10°C° 0.6 mm 5 mps 740 mmHg 96%
    09:00 +10°C° 0.5 mm 5 mps 740 mmHg 95%
    10:00 +12°C° 0.5 mm 4 mps 740 mmHg 94%
    11:00 +13°C° 0.5 mm 4 mps 740 mmHg 92%
    12:00 +14°C° 0.8 mm 4 mps 740 mmHg 84%
    13:00 +17°C° 0.8 mm 4 mps 740 mmHg 77%
    14:00 +18°C° 0.8 mm 4 mps 740 mmHg 69%
    15:00 +18°C° 0.1 mm 4 mps 740 mmHg 68%
    16:00 +18°C° 0.1 mm 4 mps 740 mmHg 67%
    17:00 +18°C° 0.1 mm 4 mps 740 mmHg 66%
    18:00 +16°C° 0 mm 3 mps 740 mmHg 72%
    19:00 +13°C° 0 mm 3 mps 741 mmHg 78%
    20:00 +12°C° 0 mm 3 mps 741 mmHg 85%
    21:00 +12°C° 0 mm 2 mps 741 mmHg 87%
    22:00 +10°C° 0 mm 2 mps 741 mmHg 90%
    23:00 +9°C° 0 mm 2 mps 742 mmHg 92%
    Show more